Weather History for Marathon, FL

Change the Weather History Date:

Wednesday, November 7, 2012

  Actual Average Record
Temperature  
Mean Temperature 72 °F 77 °F  
Max Temperature 77 °F 82 °F 87 °F (1996)
Min Temperature 67 °F 72 °F 58 °F (2010)
Degree Days  
Heating Degree Days 0 0  
Month to date heating degree days 0 0  
Since 1 July heating degree days 0 0  
Cooling Degree Days 7 12  
Month to date cooling degree days 63 86  
Year to date cooling degree days 4821 4525  
Growing Degree Days 22 (Base 50)    
Moisture  
Dew Point 60 °F    
Average Humidity 69    
Maximum Humidity 84    
Minimum Humidity 54    
Precipitation  
Precipitation 0.00 in 0.09 in 0.00 in (2014)
Month to date precipitation 0.00 0.89  
Year to date precipitation 43.80 42.22  
Snow  
Snow 0.00 in - - ()
Month to date snowfall 0.0  
Since 1 July snowfall 0.0  
Since 1 September snowfall 0.0  
Snow Depth 0.00 in    
Sea Level Pressure  
Sea Level Pressure 29.93 in    
Wind  
Wind Speed 8 mph (NNW)    
Max Wind Speed 14 mph    
Max Gust Speed 21 mph    
Visibility 10 miles    
Events      
T = Trace of Precipitation, MM = Missing Value Source: NWS Daily Summary

Daily Weather History Graph

Daily Weather History Graph

Search for Another Location

Airport:

Trip Planner

Search our weather history database for the weather conditions in past years. The results will help you decide how hot, cold, wet, or windy it might be!

Date:

Astronomy

Nov. 07, 2012 Rise Set
Actual Time 6:35 AM EST 5:40 PM EST
Civil Twilight 6:11 AM EST 6:03 PM EST
Nautical Twilight 5:44 AM EST 6:31 PM EST
Astronomical Twilight 5:17 AM EST 6:58 PM EST
Moon 12:10 AM EST (11/7) 1:09 PM EST (11/7)
Length of Visible Light 11h 52m
Length of Day
11h 04m
Last Quarter, 43% of the Moon is Illuminated
Nov 7
Last Quarter
Nov 13
New
Nov 20
First Quarter
Nov 28
Full
Dec 6
Last Quarter

Hourly Weather History & Observations

Time (EST) Temp. Dew Point Humidity Pressure Visibility Wind Dir Wind Speed Gust Speed Precip Events Conditions
12:53 AM 72.0 °F 66.0 °F 81% 29.88 in 10.0 mi Calm Calm - N/A   Clear
1:53 AM 72.0 °F 66.0 °F 81% 29.86 in 10.0 mi West 4.6 mph - N/A   Clear
2:53 AM 73.9 °F 66.0 °F 76% 29.86 in 10.0 mi WNW 8.1 mph - N/A   Scattered Clouds
3:53 AM 73.0 °F 64.9 °F 76% 29.86 in 10.0 mi NNW 4.6 mph - N/A   Clear
4:53 AM 73.0 °F 63.0 °F 71% 29.88 in 10.0 mi NW 5.8 mph - N/A   Clear
5:53 AM 73.9 °F 63.0 °F 68% 29.89 in 10.0 mi NNW 10.4 mph 17.3 mph N/A   Mostly Cloudy
6:53 AM 72.0 °F 64.0 °F 76% 29.91 in 10.0 mi NNW 6.9 mph - N/A   Mostly Cloudy
7:25 AM 71.6 °F 62.6 °F 73% 29.92 in 10.0 mi North 8.1 mph - N/A   Mostly Cloudy
7:49 AM 71.6 °F 62.6 °F 73% 29.93 in 10.0 mi North 10.4 mph 16.1 mph N/A   Mostly Cloudy
7:53 AM 71.1 °F 62.1 °F 73% 29.93 in 10.0 mi North 11.5 mph 17.3 mph N/A   Mostly Cloudy
8:53 AM 73.9 °F 60.1 °F 62% 29.96 in 10.0 mi North 8.1 mph 16.1 mph N/A   Partly Cloudy
9:53 AM 75.0 °F 59.0 °F 57% 29.97 in 10.0 mi North 9.2 mph - N/A   Partly Cloudy
10:53 AM 75.9 °F 60.1 °F 58% 29.96 in 10.0 mi North 6.9 mph - N/A   Clear
11:53 AM 77.0 °F 60.1 °F 56% 29.95 in 10.0 mi North 8.1 mph - N/A   Partly Cloudy
12:53 PM 75.9 °F 59.0 °F 56% 29.92 in 10.0 mi North 5.8 mph - N/A   Clear
1:53 PM 75.9 °F 57.9 °F 54% 29.90 in 10.0 mi NW 6.9 mph - N/A   Clear
2:53 PM 73.9 °F 57.9 °F 57% 29.90 in 10.0 mi NW 11.5 mph 17.3 mph N/A   Clear
3:53 PM 72.0 °F 57.9 °F 61% 29.90 in 10.0 mi NNW 9.2 mph 18.4 mph N/A   Partly Cloudy
4:53 PM 71.1 °F 57.0 °F 61% 29.92 in 10.0 mi NW 11.5 mph 19.6 mph N/A   Scattered Clouds
6:53 PM 71.1 °F 55.9 °F 59% 29.95 in 10.0 mi NNW 9.2 mph - N/A   Mostly Cloudy
7:53 PM 70.0 °F 55.9 °F 61% 29.96 in 10.0 mi NNW 9.2 mph 16.1 mph N/A   Mostly Cloudy
8:53 PM 70.0 °F 55.0 °F 59% 29.99 in 10.0 mi NW 10.4 mph 17.3 mph N/A   Mostly Cloudy
9:53 PM 69.1 °F 55.0 °F 61% 30.00 in 10.0 mi NNW 10.4 mph 16.1 mph N/A   Scattered Clouds
10:53 PM 68.0 °F 55.0 °F 63% 30.00 in 10.0 mi NNE 8.1 mph - N/A   Scattered Clouds
11:53 PM 68.0 °F 52.0 °F 56% 30.00 in 10.0 mi NNE 10.4 mph - N/A   Overcast